| time (UTC) | temp C | wind direction | speed KPH | gust KPH | rain 1hr cm | rain 24hr cm | rain mn cm | humidity % | barometer mb |
| 20260510070047 | 20 | 59 | 0.0 | 0.0 | 0.00 | 1.80 | 0.00 | 93 | 1012.6 |
| 20260510064513 | 20 | 59 | 0.0 | 0.0 | 0.00 | 1.80 | 0.00 | 93 | 1012.7 |
| 20260510063045 | 20 | 59 | 0.0 | 0.0 | 0.00 | 1.80 | 0.00 | 93 | 1012.7 |
| 20260510061531 | 20 | 59 | 0.0 | 0.0 | 0.00 | 1.80 | 0.00 | 93 | 1012.8 |
| 20260510060101 | 20 | 59 | 0.0 | 0.0 | 0.00 | 1.80 | 0.00 | 93 | 1012.7 |
| 20260510054540 | 20 | 59 | 0.0 | 0.0 | 0.00 | 1.80 | 0.00 | 93 | 1012.7 |
| 20260510053001 | 20 | 59 | 0.0 | 0.0 | 0.00 | 1.80 | 0.00 | 93 | 1012.7 |
| 20260510051542 | 20 | 59 | 0.0 | 0.0 | 0.00 | 1.80 | 0.00 | 93 | 1012.9 |
| 20260510050114 | 20 | 59 | 0.0 | 0.0 | 0.00 | 1.80 | 0.00 | 93 | 1012.9 |
| 20260510044536 | 20 | 59 | 0.0 | 0.0 | 0.00 | 1.80 | 1.80 | 93 | 1013.0 |
| 20260510043100 | 20 | 59 | 0.0 | 0.0 | 0.00 | 1.80 | 1.80 | 93 | 1012.9 |
| 20260510041546 | 20 | 59 | 0.0 | 0.0 | 0.00 | 1.80 | 1.80 | 93 | 1013.0 |
| 20260510040005 | 20 | 59 | 0.0 | 0.0 | 0.00 | 1.80 | 1.80 | 93 | 1013.0 |
| 20260510034554 | 20 | 59 | 0.0 | 0.0 | 0.00 | 1.80 | 1.80 | 93 | 1012.9 |
| 20260510033029 | 20 | 59 | 0.0 | 0.0 | 0.00 | 1.80 | 1.80 | 93 | 1012.9 |
| 20260510031607 | 20 | 59 | 0.0 | 0.0 | 0.00 | 1.80 | 1.80 | 93 | 1013.0 |
| 20260510030030 | 20 | 59 | 0.0 | 0.0 | 0.00 | 1.80 | 1.80 | 93 | 1013.1 |
| 20260510024613 | 20 | 59 | 0.0 | 0.0 | 0.00 | 1.80 | 1.80 | 93 | 1013.0 |
| 20260510023025 | 20 | 59 | 0.0 | 0.0 | 0.00 | 1.80 | 1.80 | 92 | 1012.7 |
| 20260510021553 | 20 | 59 | 0.0 | 0.0 | 0.00 | 1.80 | 1.80 | 93 | 1012.4 |
| 20260510020027 | 20 | 59 | 0.0 | 0.0 | 0.00 | 1.80 | 1.80 | 92 | 1012.0 |
| 20260510014616 | 20 | 59 | 0.0 | 0.0 | 0.00 | 1.80 | 1.80 | 92 | 1012.0 |
| 20260510013049 | 20 | 59 | 0.0 | 0.0 | 0.00 | 1.80 | 1.80 | 93 | 1011.5 |
| 20260510011514 | 20 | 59 | 0.0 | 0.0 | 0.00 | 1.80 | 1.80 | 92 | 1011.5 |
| 20260510010046 | 20 | 59 | 0.0 | 0.0 | 0.00 | 1.80 | 1.80 | 92 | 1011.4 |
| 20260510004516 | 20 | 55 | 0.0 | 0.0 | 0.00 | 1.80 | 1.80 | 92 | 1011.4 |
| 20260510003048 | 20 | 319 | 0.0 | 0.0 | 0.00 | 1.80 | 1.80 | 92 | 1011.2 |
| 20260510001518 | 20 | 39 | 0.0 | 0.0 | 0.00 | 1.80 | 1.80 | 92 | 1011.2 |
| 20260510000059 | 21 | 94 | 0.0 | 0.0 | 0.00 | 1.80 | 1.80 | 92 | 1010.8 |
| 20260509234533 | 21 | 78 | 0.0 | 0.0 | 0.00 | 1.80 | 1.80 | 92 | 1011.3 |
| 20260509233004 | 21 | 78 | 0.0 | 0.0 | 0.00 | 1.80 | 1.80 | 92 | 1011.3 |
| 20260509231534 | 21 | 40 | 0.0 | 0.0 | 0.00 | 1.80 | 1.80 | 92 | 1011.0 |
| 20260509224537 | 21 | 40 | 0.0 | 0.0 | 0.33 | 1.80 | 1.80 | 92 | 1011.1 |
| 20260509223013 | 21 | 95 | 0.0 | 0.0 | 0.69 | 1.80 | 1.80 | 92 | 1011.4 |
| 20260509221548 | 21 | 279 | 0.0 | 0.0 | 1.02 | 1.80 | 1.80 | 92 | 1011.0 |
| 20260509220014 | 21 | 46 | 0.0 | 1.6 | 1.02 | 1.78 | 1.78 | 91 | 1011.0 |
| 20260509214554 | 21 | 338 | 0.0 | 4.8 | 0.71 | 1.45 | 1.45 | 91 | 1011.1 |
| 20260509213028 | 21 | 32 | 0.0 | 8.0 | 0.38 | 1.12 | 1.12 | 90 | 1011.1 |
| 20260509211605 | 22 | 180 | 0.0 | 0.0 | 0.05 | 0.79 | 0.79 | 90 | 1011.3 |
| 20260509210049 | 22 | 179 | 0.0 | 0.0 | 0.10 | 0.76 | 0.76 | 90 | 1010.8 |
| 20260509204504 | 22 | 120 | 0.0 | 0.0 | 0.25 | 0.71 | 0.71 | 90 | 1011.0 |
| 20260509203041 | 22 | 197 | 0.0 | 0.0 | 0.25 | 0.71 | 0.71 | 89 | 1011.1 |
| 20260509201524 | 22 | 63 | 0.0 | 0.0 | 0.25 | 0.71 | 0.71 | 88 | 1011.0 |
| 20260509200059 | 22 | 56 | 0.0 | 0.0 | 0.18 | 0.66 | 0.66 | 85 | 1011.2 |
| 20260509194533 | 23 | 341 | 0.0 | 0.0 | 0.00 | 0.48 | 0.48 | 85 | 1011.3 |
| 20260509193100 | 23 | 360 | 0.0 | 0.0 | 0.00 | 0.48 | 0.48 | 84 | 1011.3 |
| 20260509191532 | 23 | 34 | 0.0 | 0.0 | 0.00 | 0.48 | 0.48 | 84 | 1011.1 |
| 20260509190002 | 23 | 54 | 0.0 | 0.0 | 0.00 | 0.48 | 0.48 | 84 | 1011.1 |
| 20260509184545 | 23 | 55 | 0.0 | 0.0 | 0.00 | 0.48 | 0.48 | 84 | 1011.1 |
| 20260509183018 | 23 | 55 | 0.0 | 0.0 | 0.00 | 0.48 | 0.48 | 84 | 1011.3 |
| 20260509181556 | 23 | 53 | 0.0 | 0.0 | 0.00 | 0.48 | 0.48 | 86 | 1011.3 |
| 20260509180038 | 22 | 36 | 0.0 | 0.0 | 0.00 | 0.48 | 0.48 | 87 | 1011.3 |
| 20260509174600 | 22 | 43 | 0.0 | 0.0 | 0.00 | 0.48 | 0.48 | 88 | 1011.6 |
| 20260509173054 | 22 | 32 | 0.0 | 0.0 | 0.00 | 0.48 | 0.48 | 90 | 1011.5 |
| 20260509171607 | 22 | 347 | 0.0 | 0.0 | 0.00 | 0.48 | 0.48 | 91 | 1011.9 |
| 20260509170042 | 22 | 244 | 0.0 | 0.0 | 0.00 | 0.48 | 0.48 | 92 | 1012.2 |
| 20260509164608 | 22 | 246 | 0.0 | 0.0 | 0.00 | 0.66 | 0.48 | 92 | 1012.3 |
| 20260509163045 | 22 | 252 | 0.0 | 0.0 | 0.00 | 0.66 | 0.48 | 93 | 1012.4 |
| 20260509161513 | 21 | 249 | 0.0 | 0.0 | 0.00 | 0.66 | 0.48 | 93 | 1012.2 |
| 20260509160054 | 21 | 153 | 0.0 | 0.0 | 0.00 | 0.66 | 0.48 | 93 | 1012.1 |
| 20260509154526 | 21 | 228 | 0.0 | 0.0 | 0.00 | 1.65 | 0.48 | 93 | 1012.0 |
| 20260509153101 | 21 | 274 | 0.0 | 0.0 | 0.00 | 1.65 | 0.48 | 94 | 1011.7 |
| 20260509151555 | 21 | 284 | 0.0 | 0.0 | 0.00 | 1.65 | 0.48 | 94 | 1011.4 |
| 20260509150010 | 20 | 284 | 0.0 | 0.0 | 0.00 | 1.65 | 0.48 | 94 | 1011.4 |
| 20260509144552 | 20 | 284 | 0.0 | 0.0 | 0.00 | 3.84 | 0.48 | 94 | 1011.5 |
| 20260509143028 | 20 | 298 | 0.0 | 0.0 | 0.00 | 3.84 | 0.48 | 94 | 1011.5 |
| 20260509141501 | 19 | 323 | 0.0 | 0.0 | 0.00 | 3.84 | 0.48 | 93 | 1011.7 |
| 20260509140040 | 19 | 323 | 0.0 | 0.0 | 0.00 | 3.84 | 0.48 | 94 | 1011.8 |
| 20260509134512 | 19 | 331 | 0.0 | 0.0 | 0.00 | 4.06 | 0.48 | 93 | 1011.8 |
| 20260509133052 | 19 | 316 | 0.0 | 0.0 | 0.00 | 4.06 | 0.48 | 93 | 1011.7 |
| 20260509131516 | 18 | 333 | 0.0 | 1.6 | 0.00 | 4.06 | 0.48 | 93 | 1011.4 |
| 20260509130106 | 18 | 26 | 0.0 | 0.0 | 0.00 | 4.06 | 0.48 | 93 | 1011.6 |
| 20260509124529 | 18 | 24 | 0.0 | 0.0 | 0.00 | 4.06 | 0.48 | 93 | 1011.6 |
| 20260509123118 | 18 | 13 | 0.0 | 0.0 | 0.00 | 4.06 | 0.48 | 93 | 1011.5 |
| 20260509121524 | 18 | 17 | 0.0 | 0.0 | 0.00 | 4.06 | 0.48 | 93 | 1011.3 |
| 20260509120100 | 18 | 17 | 0.0 | 0.0 | 0.00 | 4.06 | 0.48 | 93 | 1011.4 |
| 20260509114531 | 18 | 42 | 0.0 | 0.0 | 0.00 | 4.06 | 0.48 | 93 | 1011.5 |
| 20260509113013 | 18 | 61 | 0.0 | 0.0 | 0.00 | 4.06 | 0.48 | 93 | 1011.1 |
| 20260509111601 | 18 | 61 | 0.0 | 0.0 | 0.00 | 4.06 | 0.48 | 93 | 1011.1 |
| 20260509110027 | 18 | 61 | 0.0 | 0.0 | 0.00 | 4.06 | 0.48 | 93 | 1010.9 |
| 20260509104556 | 18 | 61 | 0.0 | 0.0 | 0.03 | 4.06 | 0.48 | 93 | 1010.8 |
| 20260509103022 | 18 | 61 | 0.0 | 0.0 | 0.25 | 4.06 | 0.48 | 93 | 1010.8 |
| 20260509101601 | 18 | 61 | 0.0 | 0.0 | 0.48 | 4.06 | 0.48 | 93 | 1010.9 |
| 20260509100027 | 18 | 61 | 0.0 | 0.0 | 0.48 | 4.06 | 0.48 | 92 | 1011.1 |
| 20260509094608 | 18 | 61 | 0.0 | 1.6 | 0.46 | 4.04 | 0.46 | 92 | 1011.8 |
| 20260509093048 | 19 | 275 | 0.0 | 1.6 | 0.23 | 3.81 | 0.23 | 93 | 1012.1 |
| 20260509091517 | 20 | 58 | 0.0 | 1.6 | 0.00 | 3.58 | 0.00 | 93 | 1012.2 |
| 20260509090052 | 20 | 105 | 0.0 | 0.0 | 0.00 | 3.58 | 0.00 | 93 | 1011.3 |
| 20260509084529 | 20 | 105 | 0.0 | 0.0 | 0.00 | 3.58 | 0.00 | 93 | 1010.8 |
| 20260509083005 | 20 | 105 | 0.0 | 0.0 | 0.00 | 3.58 | 0.00 | 93 | 1010.4 |
| 20260509081550 | 20 | 105 | 0.0 | 0.0 | 0.00 | 3.58 | 0.00 | 93 | 1009.8 |
| 20260509080025 | 20 | 105 | 0.0 | 0.0 | 0.00 | 3.58 | 0.00 | 93 | 1009.9 |
| 20260509074559 | 20 | 105 | 0.0 | 0.0 | 0.00 | 3.58 | 0.00 | 93 | 1010.1 |
| 20260509073027 | 20 | 105 | 0.0 | 0.0 | 0.00 | 3.58 | 0.00 | 93 | 1010.2 |
| 20260509071604 | 20 | 105 | 0.0 | 0.0 | 0.00 | 3.58 | 0.00 | 93 | 1010.7 |